STARLINK-1288 (45372 NORAD) Tracking and Keplerian Element Data

This shows tracking and keplerian element data for the satellite.

Feedback or suggestion? Click here.




ElementValue
Catalog45372
NameSTARLINK-1288
Epoch Orbit1083
Epoch Day144.83334491
Epoch Year2020
RAAN305.0673
Inclination52.9984
Eccentricity0.0001411
Argument of Perigee90.5394
Mean Anonmoly177.0107
Mean Motion15.05574054
Decay Rate0.00028914
L11 45372U 20019N 20144.83334491 .00028914 00000-0 19958-2 0 9997
L22 45372 52.9984 305.0673 0001411 90.5394 177.0107 15.05574054 10832

Live tracking and technical data element details for STARLINK-1288 (NORAD 45372). STARLINK-1288 can be tracked NOW for your location showing map with azimuth and elevation plus other details from your city location.

Track the satellite on the map from your city or location and see movement details for azimuth, elevation, latitude, longitude, range, height, and movement on the map or in text.







IsCatalogInMostPopularTable: catalog: 45372, numindb: 21
Update: records affected: 1



GetName: 45372 STARLINK-1288

Hit Count: updated at: Mon, 25 May 2020 08:44:42 GMT